カタログに戻る

STARLINK-35902

運用中通信VLEO
NORAD 66626·PAYLOAD·🇺🇸 United States

打ち上げ Nov 23, 2025 から Vandenberg Space Force Base

Loading…

次のパス (今後24時間)

TLE

最新Source: CelesTrak SupGP

元期: Sep 15, 2026, 03:58 UTC

1 66626C 25271K   26258.16576389  .00057695  00000+0  17037-2 0  2580
2 66626  53.1590 338.4080 0001293  82.7630  22.4200 15.34378314    18

AllMySatでSTARLINK-35902をリアルタイム追跡

Download on the App Store